Weather in Gali

Abkhazia     42°37′38″N   41°44′12″E
temp.,
°C
wind,
m/s
gust,
m/s
humid.,
%
clouds,
%
prec.,
mm/h
press.,
hPa
HPBL,
m
25 july, sun
sun2500:00+19ese119672 1.4 101327
03:00+19e129486 2.4 101360
06:00+18e229599 1.3 101354
09:00+20se129297 2.0 101391
12:00+24ssw327045 0.4 1013894
15:00+27wsw226148 0.6 10121169
18:00+24wsw22753 0.0 1012423
21:00+20ne119628 0.1 101414
26 july, mon
mon2600:00+19ene119413 0.0 101415
03:00+19ene118933 0.0 101417
06:00+20ne118032 0.0 101419
09:00+25sw217124 0.0 1014684
12:00+27sw326180 0.0 10131268
15:00+26w337158 0.1 1013857
18:00+23wsw248972 0.8 1013283
21:00+21wsw129998 2.5 101584
27 july, tue
tue2700:00+20e119999 2.9 101553
03:00+20ese129746 4.1 1014103
06:00+20e1297100 1.4 101588
09:00+19sse2399100 6.2 1014125
12:00+19ese3598100 26.4 1014211
15:00+20s2294100 30.9 1015329
18:00+21se238646 0.7 1014403
21:00+18ene238919 1.1 101547
28 july, wed
wed2800:00+17ene239282 1.4 101440
03:00+17ene239037 2.4 101442
06:00+17ene228615 0.1 101444
09:00+22s237426 0.2 1014774
12:00+24sse337621 1.6 1013910
15:00+24sse227444 3.3 10121011
18:00+22sse238923 1.5 1013333
21:00+19ene229611 2.3 101428
29 july, thu
thu2900:00+18ene22945 0.1 101431
03:00+18ene22934 0.1 101328
06:00+18ne22914 0.0 101424
09:00+24ssw22652 0.0 1013835
12:00+26ssw225829 0.2 10121253
15:00+28sw334928 0.3 10111616
18:00+24sw21804 0.1 1011316
21:00+19ne21956 1.1 101315